This demonstration page uses our WeatherBlox Daily Observations layout. Learn more.

Left ArrowRight Arrow

Hourly Observations for October 1, 2019

Temp ( °F °C ) Dew Point ( °F °C ) Humidity (%) Winds ( mph kmh ) Pressure ( in mb ) Visibility ( mi km ) Precip ( " mm )
12:53 am 00:53 Clear 79 26.1 64 17.8 60 60 SSE 15 24 29.74 1007 10 16 0.00 0.00
1:53 am 01:53 Clear 78 25.6 64 17.8 62 62 SSE 18 30 29.73 1007 10 16 0.00 0.00
2:53 am 02:53 Clear 78 25.6 66 18.9 67 67 SE 18 30 29.72 1007 10 16 0.00 0.00
3:53 am 03:53 Clear 77 25 66 18.9 69 69 SSE 14 22 29.72 1007 10 16 0.00 0.00
4:53 am 04:53 Mostly Clear 76 24.4 66 18.9 72 72 SSE 16 26 29.72 1007 10 16 0.00 0.00
5:53 am 05:53 Cloudy 76 24.4 66 18.9 72 72 SSE 16 26 29.74 1007 10 16 0.00 0.00
6:37 am 06:37 Mostly Cloudy 76 24.4 67 19.4 74 74 SSE 17 28 29.74 1007 10 16 0.00 0.00
6:53 am 06:53 Mostly Cloudy 76 24.4 67 19.4 74 74 SSE 20 31 29.75 1007 10 16 0.00 0.00
7:15 am 07:15 Cloudy 76 24.4 67 19.4 74 74 SSE 18 30 29.75 1007 10 16 0.00 0.00
7:53 am 07:53 Cloudy 76 24.4 67 19.4 74 74 SSE 18 30 29.76 1008 10 16 0.00 0.00
8:53 am 08:53 Sunny 76 24.4 67 19.4 74 74 SSE 17 28 29.76 1008 10 16 0.00 0.00
9:53 am 09:53 Mostly Sunny 78 25.6 66 18.9 67 67 SSE 25 41 29.78 1009 10 16 0.00 0.00
10:53 am 10:53 Partly Cloudy 82 27.8 66 18.9 58 58 SSE 20 31 29.79 1009 10 16 0.00 0.00
11:53 am 11:53 Mostly Cloudy 86 30 66 18.9 51 51 S 20 31 29.79 1009 10 16 0.00 0.00
12:53 pm 12:53 Mostly Sunny 87 30.6 65 18.3 48 48 SSE 21 33 29.78 1008 10 16 0.00 0.00
1:53 pm 13:53 Mostly Cloudy 90 32.2 65 18.3 44 44 SSE 18 30 29.75 1007 10 16 0.00 0.00
2:53 pm 14:53 Mostly Cloudy 92 33.3 65 18.3 41 41 SSE 17 28 29.71 1006 10 16 0.00 0.00
3:53 pm 15:53 Partly Cloudy 93 33.9 63 17.2 37 37 S 17 28 29.68 1005 10 16 0.00 0.00
4:53 pm 16:53 Cloudy 91 32.8 63 17.2 39 39 SSE 20 31 29.66 1005 10 16 0.00 0.00
5:53 pm 17:53 Partly Cloudy 91 32.8 63 17.2 39 39 SSE 18 30 29.66 1004 10 16 0.00 0.00
6:32 pm 18:32 Mostly Cloudy with Nearby Thunderstorms 90 32.2 63 17.2 41 41 SSE 20 31 29.58 1002 10 16 0.00 0.00
6:49 pm 18:49 Mostly Cloudy 90 32 63 17 41 41 SSE 15 24 29.59 1002 10 16 0.00 0.00
6:53 pm 18:53 Mostly Cloudy 90 32.2 63 17.2 41 41 SSE 18 30 29.66 1004 10 16 0.00 0.00
7:53 pm 19:53 Mostly Clear 88 31.1 63 17.2 43 43 SSE 21 33 29.67 1005 10 16 0.00 0.00
8:53 pm 20:53 Partly Cloudy 85 29.4 63 17.2 48 48 SSE 15 24 29.70 1006 10 16 0.00 0.00
9:53 pm 21:53 Mostly Clear 83 28.3 63 17.2 51 51 S 13 20 29.73 1007 10 16 0.00 0.00
10:53 pm 22:53 Clear 81 27.2 63 17.2 54 54 S 8 13 29.74 1007 10 16 0.00 0.00
11:53 pm 23:53 Partly Cloudy 80 26.7 63 17.2 56 56 S 7 11 29.76 1008 10 16 0.00 0.00

Powered by AerisWeather